Theta_e
319 323 322 323 324 328 329 326 335 332 336 335 335 335 336 336 337 336 335 336 333 330 332 328 331 331 337 329 329 334 326 329 328 329 328 328 327 324 328 330 334 336 338 338 334 336 335 337 338 335 335 335 333 330 331 330 331 331 330 332 331 329 330 331 329 329 327 325 329 328 328 331 332 331 330 331 331 331 330 330 330 329 329 329 331
318 321 321 323 321 327 332 326 333 330 333 334 332 333 335 337 336 335 334 334 335 334 342 338 336 326 331 327 327 325 321 323 324 327 327 329 331 333 336 334 333 335 335 335 336 334 335 335 337 337 336 334 333 332 331 331 330 332 331 330 331 328 327 330 330 329 324 322 321 321 323 327 330 329 326 329 333 332 330 329 330 331 330 330 329
318 320 322 320 324 324 329 332 331 332 331 334 334 333 334 336 337 334 332 333 334 336 332 333 332 333 334 329 330 321 323 326 323 324 326 325 332 330 331 332 336 327 331 333 335 332 332 333 333 334 333 332 331 329 330 330 331 331 329 328 327 328 327 330 328 328 324 325 324 319 316 317 322 325 329 329 331 333 332 328 329 327 326 328 332
317 320 320 320 323 323 327 331 332 333 330 331 333 333 333 332 335 334 331 332 334 332 333 334 333 333 331 325 324 323 322 326 326 327 326 326 325 328 330 331 327 326 328 326 325 331 337 332 332 331 332 333 330 329 331 329 329 330 329 330 328 323 323 326 330 328 327 323 315 315 317 316 312 317 321 327 333 331 327 327 326 324 324 326 330
319 319 320 320 322 322 325 329 332 331 327 328 333 332 333 332 334 334 330 331 331 332 333 331 330 330 328 323 322 323 326 325 325 325 325 326 326 327 330 332 329 329 329 326 325 326 327 328 330 330 332 331 331 329 329 329 329 329 330 329 326 324 323 326 328 328 327 328 324 317 314 312 313 318 320 322 328 328 327 325 328 327 325 326 327
318 320 321 322 321 323 325 328 329 328 327 328 332 334 334 334 335 332 329 330 329 332 331 330 329 326 326 322 319 321 322 324 321 321 325 325 322 329 326 326 327 328 325 326 326 328 331 328 330 327 329 328 327 328 326 327 329 328 330 329 329 328 328 324 323 325 328 327 329 327 323 317 316 321 319 313 325 327 327 328 327 327 328 329 329
324 321 321 321 321 323 325 325 328 326 326 328 331 332 336 336 336 332 329 329 329 331 329 329 327 324 324 321 321 321 322 326 326 326 324 324 327 327 328 332 326 328 327 326 325 326 326 326 328 325 324 325 325 324 322 323 322 323 328 328 327 326 328 322 322 321 326 324 324 326 326 326 327 321 316 317 313 321 324 325 328 327 327 327 327
322 319 320 321 321 321 323 325 324 324 326 325 326 330 335 336 335 330 328 328 328 330 328 327 325 324 324 322 323 325 324 322 324 325 327 326 326 325 328 328 326 327 326 323 322 321 323 323 322 323 325 323 323 322 323 323 324 324 325 326 325 327 326 323 321 322 321 319 323 321 322 325 325 324 322 319 316 313 318 325 328 327 327 327 327
313 317 321 320 321 323 324 327 328 324 325 327 327 329 335 336 334 330 328 328 329 331 326 326 326 324 325 324 323 325 323 323 322 322 323 326 326 329 326 324 326 324 320 321 320 320 321 321 320 318 317 318 318 320 322 324 325 324 324 324 323 323 323 324 323 321 322 322 322 322 322 322 324 324 324 321 317 313 314 316 319 327 328 327 326
314 314 318 323 322 323 324 325 327 327 327 326 327 328 334 335 333 328 327 328 328 329 326 326 326 324 325 324 325 321 322 321 321 323 324 327 325 323 323 324 324 325 325 322 321 320 321 321 319 321 319 316 315 316 320 321 322 322 323 323 323 321 321 320 318 318 318 316 319 325 321 320 321 321 321 320 319 317 313 312 316 316 314 323 327
311 312 317 325 325 328 329 327 327 329 328 326 326 326 332 333 333 327 327 327 328 328 326 326 326 324 325 324 325 320 321 322 321 321 322 324 321 322 323 324 324 323 324 325 323 321 320 322 321 319 320 321 318 318 318 315 319 321 319 318 318 318 318 317 317 316 317 315 314 313 312 314 314 313 313 314 313 312 310 310 310 308 307 307 315
311 311 313 321 322 324 332 328 329 327 328 326 324 322 324 332 332 327 327 327 328 327 326 326 326 324 326 325 326 323 323 322 320 320 321 321 322 322 322 322 321 323 324 323 322 323 323 322 323 322 323 323 322 321 319 319 320 320 320 320 318 318 318 316 314 313 313 314 313 313 314 316 313 311 313 314 313 311 311 307 306 307 308 308 311
310 312 316 320 321 328 323 324 328 331 330 330 329 325 328 330 331 326 325 327 327 327 326 326 326 324 326 325 327 325 324 323 322 322 322 322 321 322 320 319 320 320 322 321 323 323 324 323 322 321 320 321 319 316 317 319 319 318 317 317 317 316 316 315 314 313 313 312 312 313 312 313 312 315 315 314 315 314 314 309 309 309 306 307 308
312 315 316 318 321 320 324 321 322 330 331 331 332 327 323 325 329 326 325 327 326 326 326 326 326 325 327 325 326 324 324 325 322 323 323 323 323 323 321 320 319 321 321 321 323 324 325 325 323 321 322 322 323 323 322 320 319 316 318 317 317 318 317 316 315 315 314 313 313 311 312 311 312 316 313 315 313 312 310 309 308 309 308 306 308
313 317 318 318 322 326 329 326 324 331 332 333 333 326 321 320 325 325 325 326 326 326 326 326 326 326 327 325 326 324 324 324 324 324 324 325 324 323 324 322 322 321 321 322 322 324 324 322 322 321 322 321 320 320 322 321 320 316 317 318 317 317 316 316 315 314 314 312 312 313 317 311 312 310 312 312 310 311 309 309 308 305 305 307 306
314 316 318 320 322 325 328 330 330 330 330 330 326 323 319 318 320 325 325 326 326 326 325 326 326 327 327 325 325 325 323 324 325 324 324 328 325 323 326 326 324 323 323 321 322 324 322 322 320 322 321 321 321 320 320 319 320 317 317 318 316 319 318 317 316 315 315 314 313 315 312 311 313 310 313 312 312 313 312 311 309 307 303 301 304
313 315 317 320 320 324 325 326 328 329 325 326 328 324 321 321 320 321 324 328 326 325 326 327 327 327 327 327 325 326 323 323 323 326 325 328 328 324 327 327 327 325 324 322 323 324 323 321 320 320 321 321 321 321 320 320 321 318 318 318 317 318 317 316 317 315 315 316 314 313 316 313 310 315 315 313 313 313 314 312 312 309 309 304 302
314 315 317 318 319 320 321 324 325 326 326 327 326 328 326 324 323 324 325 325 326 325 326 327 327 328 327 327 326 327 325 326 326 328 327 326 329 324 327 325 328 326 324 323 323 324 323 323 322 321 322 321 321 321 318 319 320 317 317 318 318 318 316 316 316 315 314 314 314 313 310 313 311 314 313 314 316 316 314 314 311 311 310 306 304
313 314 316 316 318 319 322 325 322 324 327 327 325 327 327 328 325 323 322 322 323 326 327 327 328 329 328 327 328 328 328 328 327 329 327 326 327 326 325 323 327 326 324 323 322 323 323 322 322 320 321 320 320 320 319 317 318 317 318 317 318 317 316 316 316 315 315 315 312 312 312 315 313 313 314 316 314 314 315 309 310 311 311 310 308
311 313 314 316 316 317 318 321 320 323 325 326 326 330 327 328 326 325 323 323 324 327 333 327 328 331 329 330 330 328 328 330 330 331 329 324 326 326 327 323 324 323 325 324 322 322 322 321 322 320 320 319 318 319 319 317 319 316 317 315 315 317 315 314 313 314 312 315 311 312 311 311 311 309 309 314 314 312 311 310 310 310 309 309 309
311 311 313 314 316 317 317 318 318 320 322 324 325 324 325 326 327 324 326 326 326 326 328 330 333 328 329 329 331 332 331 329 332 330 328 331 329 326 326 326 324 322 324 323 322 322 321 321 321 320 319 318 317 318 317 318 318 316 316 316 314 314 314 312 313 312 314 313 311 311 310 312 311 309 309 309 309 309 310 312 310 310 309 309 307
312 312 312 312 315 315 316 317 317 318 318 318 319 322 322 325 322 324 323 326 323 322 323 330 328 333 331 327 330 327 331 332 330 328 327 329 331 329 329 330 328 324 324 322 321 322 321 321 320 320 320 318 317 317 316 317 316 316 315 318 313 312 312 312 313 310 312 314 312 310 310 310 311 309 309 305 305 305 304 303 307 310 307 311 311
311 311 312 313 314 315 315 316 316 317 316 316 317 316 317 320 322 323 322 324 324 324 326 332 330 330 331 329 327 326 330 331 331 330 328 326 327 328 330 328 329 330 327 323 321 322 322 321 320 320 319 318 317 317 317 317 316 315 314 315 315 312 312 313 311 311 310 310 311 311 310 310 312 309 310 309 308 307 307 305 305 305 305 306 306
311 312 312 312 313 314 312 313 313 314 316 315 315 313 314 315 316 317 320 321 323 325 326 325 328 330 329 329 329 330 331 330 330 331 330 328 329 329 329 329 328 327 328 330 324 320 320 320 320 320 319 319 318 318 317 316 316 315 314 313 313 313 312 313 311 310 309 310 309 310 310 311 309 309 308 309 309 308 308 307 305 304 304 304 307
309 309 310 311 310 309 309 310 311 311 312 314 314 314 313 313 314 315 317 318 319 323 325 322 323 325 326 326 326 326 330 331 330 330 328 324 323 323 325 324 326 325 328 327 328 327 322 319 321 320 319 319 319 318 316 316 316 316 315 314 313 312 312 312 312 311 313 311 309 310 310 309 308 308 308 308 308 309 305 305 304 304 304 305 306
309 310 311 311 308 307 308 309 308 309 309 310 312 311 311 311 313 316 315 316 317 319 321 324 324 324 324 325 326 327 327 326 326 325 322 322 321 321 319 322 324 323 322 324 325 325 323 321 320 320 319 319 319 318 317 316 315 316 315 314 313 313 313 312 312 313 311 311 310 309 309 309 308 307 308 308 307 306 306 305 304 304 303 303 304
307 309 309 309 309 309 308 309 309 309 309 309 309 309 309 311 312 312 313 315 317 318 318 318 319 320 320 322 323 324 325 325 324 323 323 323 323 323 323 323 322 323 323 321 322 322 322 322 323 322 319 320 320 319 318 317 316 315 315 314 314 313 314 313 313 312 311 310 309 309 309 309 307 307 306 306 306 307 308 305 305 303 301 301 300
308 308 307 307 308 309 310 310 310 308 309 309 310 310 309 310 310 311 312 313 314 315 316 315 315 315 315 316 317 320 325 326 325 322 320 321 321 320 320 321 321 321 322 321 320 321 321 321 320 318 320 322 321 320 320 318 316 315 315 314 314 314 312 312 313 311 311 309 309 309 308 308 307 307 305 303 301 300 300 299 299 299 299 299 299
307 308 308 308 307 309 310 310 309 309 309 309 309 310 311 310 310 310 311 312 313 313 313 313 313 314 314 316 318 318 323 322 324 325 323 322 322 322 321 320 320 320 319 319 318 319 319 321 322 322 321 321 321 320 319 318 316 315 316 314 314 313 312 311 310 310 309 308 307 307 307 306 306 300 300 300 300 299 299 296 298 299 298 297 297
304 307 308 308 308 308 308 310 309 307 308 308 308 308 309 309 309 309 310 311 313 314 311 310 310 312 313 312 314 317 319 319 319 320 320 323 323 322 322 322 324 324 323 323 322 321 320 321 321 320 320 321 321 319 315 308 309 316 315 316 315 314 313 311 309 307 307 306 306 306 308 306 303 301 296 293 293 294 297 300 297 296 296 296 296
304 305 306 307 308 308 308 307 308 308 308 308 309 309 309 309 308 308 308 309 309 312 310 308 308 311 314 313 316 313 318 318 320 322 320 321 319 321 322 321 323 323 324 324 323 323 322 321 321 320 319 321 320 318 307 303 301 305 314 314 313 312 312 311 308 307 305 306 306 305 305 302 300 299 297 292 293 292 292 293 294 296 298 297 295
304 305 306 306 306 307 307 307 308 307 307 307 308 306 307 307 307 306 307 307 310 309 312 309 308 314 310 315 313 315 316 314 317 317 319 320 320 320 320 321 322 323 324 325 324 322 322 322 322 321 320 321 319 310 304 301 299 301 307 314 313 310 309 308 306 306 305 304 303 304 305 305 302 301 300 298 295 293 291 292 291 292 292 292 294
304 304 304 305 306 306 308 307 307 306 306 306 306 308 308 308 308 309 307 308 308 309 308 309 309 310 309 316 315 314 314 316 316 316 316 317 317 319 319 319 319 322 323 321 322 322 321 321 321 321 317 310 308 297 298 297 297 299 301 306 309 309 308 307 306 306 306 305 304 305 304 306 304 306 304 302 300 296 293 292 292 293 292 291 290
305 305 305 305 306 306 307 308 308 307 307 307 308 308 308 314 309 307 309 308 307 307 309 308 309 309 310 312 314 314 314 315 315 315 315 315 315 315 319 320 320 319 320 320 319 319 319 319 320 318 311 306 304 295 295 295 296 296 298 302 306 306 306 306 306 305 305 303 305 304 303 304 304 303 300 301 300 300 299 296 294 294 294 295 293
305 307 306 308 307 307 307 306 307 306 309 309 306 308 309 307 309 308 308 308 307 307 309 310 311 309 310 310 310 310 314 314 314 314 314 313 314 314 316 319 319 319 318 318 317 317 317 318 318 313 306 305 302 293 293 294 294 294 296 300 306 308 305 304 306 308 307 306 305 306 304 302 302 302 304 303 303 301 300 300 298 297 296 297 296
304 305 306 305 305 305 306 306 307 305 304 304 306 307 307 307 308 308 308 308 307 309 306 311 312 313 311 311 311 313 314 314 314 314 314 313 314 314 315 318 318 318 317 317 318 317 317 317 317 309 306 303 298 292 292 293 292 292 294 301 305 306 303 306 306 306 305 306 304 303 301 301 301 301 297 294 297 300 298 297 296 295 295 295 296
306 305 305 309 307 305 306 307 306 305 305 307 307 308 310 307 306 305 306 306 310 309 306 311 310 308 310 312 313 314 314 313 313 313 312 313 313 314 315 317 317 317 316 316 315 316 316 315 311 308 305 301 296 293 291 291 290 292 296 302 305 302 302 303 304 304 302 302 303 302 302 301 302 301 294 291 292 294 297 295 295 294 295 295 295
304 305 306 306 308 305 305 306 306 305 306 305 305 307 306 306 306 305 305 305 304 305 305 306 307 312 313 312 311 309 312 313 312 311 311 312 312 313 313 316 315 315 314 314 315 315 316 314 309 307 304 300 297 292 290 290 290 292 296 302 302 303 303 302 301 303 303 303 304 307 304 301 302 298 289 290 289 294 296 295 295 294 293 293 294
303 302 303 303 309 305 303 304 304 302 303 306 305 306 304 304 305 305 305 304 305 305 307 307 310 310 310 310 313 313 313 313 312 312 314 312 313 313 312 315 316 315 315 314 313 313 313 312 308 305 302 300 296 292 290 289 289 290 296 300 300 299 300 300 301 301 302 302 301 303 301 298 295 290 289 289 289 293 294 294 294 293 292 292 293
301 302 308 302 302 302 307 305 302 302 305 305 304 304 305 304 304 305 304 304 304 305 305 308 310 310 309 309 313 313 311 309 309 314 313 313 313 312 311 311 314 314 313 311 311 311 311 308 304 302 302 300 295 294 292 289 290 289 290 298 299 298 297 297 299 300 303 303 303 298 291 289 289 288 288 288 288 289 291 291 291 290 290 290 293
299 300 300 300 301 300 299 301 302 304 305 306 305 304 303 303 304 304 303 305 307 307 307 307 308 308 306 305 305 308 311 311 312 313 314 313 313 312 312 311 311 313 312 312 312 310 308 306 304 303 301 299 297 294 292 289 290 290 289 291 295 296 297 299 296 296 297 298 297 295 292 289 289 289 288 288 289 289 289 290 290 289 290 292 290
300 300 300 300 300 301 301 301 302 302 303 304 304 303 303 303 303 303 304 306 306 306 307 306 305 305 305 305 306 307 310 314 314 314 313 312 312 311 310 311 309 310 312 310 310 308 306 305 303 301 299 297 297 295 292 290 290 290 289 289 294 296 293 294 294 293 294 296 296 297 292 290 288 289 289 289 289 289 288 290 290 289 289 289 289
299 299 300 300 299 299 300 300 301 302 302 302 302 300 301 302 302 304 305 305 305 305 305 305 305 304 305 306 307 308 309 311 311 310 309 310 311 310 310 309 311 311 310 307 306 306 305 302 299 298 297 296 295 294 292 291 289 290 289 290 288 291 290 295 295 294 295 296 297 297 292 290 289 288 288 288 289 288 289 289 289 288 288 288 288
298 298 299 299 298 299 299 300 301 301 301 301 301 300 300 301 302 304 305 305 305 305 305 304 304 304 304 304 304 305 306 308 308 308 307 308 309 309 310 310 311 309 308 305 304 304 302 300 298 297 296 295 294 293 292 291 291 289 289 290 289 287 288 295 295 294 294 295 296 296 293 289 290 290 289 289 289 289 289 289 288 288 288 288 288
297 297 298 298 298 298 298 298 299 301 301 301 301 300 300 300 302 304 303 303 304 304 305 304 304 304 305 305 305 305 305 305 307 307 306 306 308 310 309 308 308 308 307 305 304 302 301 299 297 296 295 295 294 293 293 291 290 289 289 289 288 288 288 287 294 296 297 297 291 289 289 289 289 289 289 289 289 289 288 288 288 288 289 289 289
296 297 297 298 298 298 298 298 299 300 300 300 300 300 298 299 302 302 303 304 304 304 303 303 303 303 303 303 304 304 305 306 307 306 306 308 308 308 307 307 307 306 306 303 300 299 298 297 296 295 294 294 294 293 293 293 291 291 289 288 288 288 289 289 291 294 290 289 289 289 289 289 290 290 290 290 291 292 290 289 289 289 290 289 290
295 295 296 297 297 296 296 297 297 299 299 300 300 301 300 301 302 303 303 303 302 301 301 302 302 302 303 303 303 303 304 305 306 308 308 308 307 307 306 304 305 305 304 302 298 296 296 296 295 294 293 293 292 292 292 292 292 291 292 292 290 291 290 289 291 294 292 294 294 292 291 290 290 290 289 289 288 288 289 291 291 291 291 291 291
295 296 296 296 296 295 296 296 296 298 299 300 300 300 300 301 301 301 301 301 301 300 300 300 301 301 300 301 301 296 300 303 304 306 306 306 306 306 305 304 303 303 302 299 298 296 296 296 296 295 295 294 294 294 294 294 295 295 295 295 296 297 294 294 292 289 289 291 291 290 291 292 293 293 293 292 291 291 289 288 289 289 290 290 291
294 295 295 295 296 296 296 296 297 298 298 299 299 300 300 301 301 301 301 300 300 299 300 300 300 301 300 301 301 301 301 302 305 303 297 296 299 304 305 304 304 303 304 300 298 297 297 296 295 294 294 293 291 290 290 288 288 287 289 291 290 290 290 291 289 287 288 290 291 291 290 290 289 287 287 286 288 287 286 288 290 289 289 290 289
295 296 296 296 296 296 296 296 297 298 298 298 299 300 300 300 300 300 300 299 299 299 300 299 299 300 300 300 301 300 301 302 304 300 296 292 288 288 293 299 297 291 292 293 294 296 297 294 292 291 294 292 290 289 287 287 287 287 287 286 287 287 287 288 288 287 287 286 286 287 287 287 286 286 286 286 286 286 286 286 286 287 287 288 288
295 295 296 296 297 297 297 297 297 298 299 299 299 299 300 300 301 300 300 300 299 298 298 298 299 299 298 300 301 300 301 303 302 300 297 294 291 290 288 287 289 290 290 290 290 290 290 290 291 288 288 288 287 287 287 287 287 287 287 286 286 287 287 287 287 286 286 286 287 286 286 286 286 287 287 287 287 287 287 287 287 287 287 287 287
Wind_Speed
16 17 16 16 11 10 8 9 5 8 6 10 7 8 8 7 7 7 6 5 4 4 3 4 3 3 2 4 4 2 4 4 8 6 6 5 6 6 4 4 2 2 1 2 4 4 2 3 2 2 3 3 4 3 4 3 2 2 4 3 2 3 2 1 2 1 1 1 1 1 2 1 1 1 0 1 2 2 3 4 3 3 4 5 7
15 13 16 13 12 10 7 10 7 8 8 9 7 9 8 9 8 8 6 5 5 4 2 2 2 5 3 4 3 4 3 6 6 6 5 4 3 2 2 2 3 2 2 2 2 4 6 4 2 2 3 3 3 5 3 2 2 2 1 2 1 2 2 1 2 2 0 3 2 1 2 2 0 0 1 1 0 1 3 4 4 3 3 4 4
12 13 15 12 10 14 8 7 9 9 7 7 6 8 8 9 9 8 6 5 4 4 4 3 5 5 3 4 4 7 8 6 6 6 4 5 3 3 3 4 2 4 2 0 1 3 4 4 4 4 2 5 4 3 3 2 1 3 2 2 3 1 1 1 2 4 1 1 1 1 1 2 2 2 1 0 1 1 1 4 4 3 3 2 2
13 9 11 11 7 12 7 7 7 9 6 5 8 9 8 7 8 9 7 5 4 5 4 6 6 5 7 8 9 8 5 5 6 5 5 5 5 3 3 3 4 6 3 4 4 2 2 3 4 5 5 6 6 6 4 4 3 2 2 1 3 2 1 2 3 2 0 2 1 1 0 0 2 2 1 1 1 1 2 2 4 4 2 2 1
11 13 12 10 11 12 9 9 7 9 7 8 8 9 6 8 9 9 8 6 6 5 7 7 6 6 7 7 6 6 4 4 4 4 4 3 4 3 3 3 3 3 3 4 4 6 5 4 3 3 3 4 6 6 6 5 5 5 3 3 3 2 3 1 1 1 1 3 1 1 0 0 1 1 1 0 0 2 2 2 1 2 5 5 4
13 11 11 9 12 11 10 9 9 10 10 9 7 9 9 9 10 10 7 7 8 7 9 7 6 7 5 5 6 5 4 4 5 5 4 3 4 3 4 4 4 3 4 5 4 3 3 4 3 4 3 5 5 3 3 5 6 5 5 2 1 3 1 2 2 1 2 2 2 2 0 0 0 0 0 1 0 2 2 2 3 3 2 4 3
10 7 6 6 6 7 11 10 8 8 10 8 7 10 11 11 11 10 9 8 8 8 9 7 7 6 5 6 5 5 5 4 5 5 6 5 4 4 3 3 4 3 4 4 5 5 5 4 3 4 3 3 4 5 6 6 6 5 3 5 5 4 4 3 3 3 1 4 2 3 3 1 1 0 0 1 1 0 2 2 2 2 3 4 4
9 13 13 11 11 12 12 13 11 10 5 1 9 13 14 13 12 12 9 10 8 9 9 8 8 7 6 6 6 4 6 6 6 5 5 5 5 4 3 3 3 4 4 5 5 5 4 3 4 4 3 3 4 5 5 7 5 3 6 6 6 4 4 6 5 6 2 1 1 2 4 2 1 1 1 1 0 2 1 2 2 3 3 3 3
13 14 16 17 14 13 11 10 11 13 12 9 13 13 12 12 13 11 11 10 10 10 9 8 7 8 6 6 5 6 7 6 5 5 5 4 4 3 3 4 5 5 5 4 4 4 4 4 5 6 6 4 5 5 4 4 4 5 4 4 4 5 5 4 3 4 4 3 4 2 4 4 3 2 2 1 1 1 3 1 2 2 3 4 3
1 6 6 9 15 16 14 13 10 11 11 12 10 14 12 11 13 14 12 11 11 11 9 9 9 7 6 6 6 9 7 6 5 5 4 3 4 5 5 5 4 4 3 3 4 4 3 4 4 3 4 5 5 5 4 4 3 4 4 4 4 5 4 5 5 4 5 4 2 1 1 3 2 1 2 3 3 4 3 3 1 1 2 2 3
1 4 4 3 4 8 13 15 18 14 12 13 12 11 10 12 13 15 13 11 12 12 11 10 9 8 6 7 7 10 8 6 7 5 5 4 4 5 5 4 4 4 3 3 4 4 4 3 4 4 4 4 5 4 4 5 3 3 4 4 4 4 4 5 5 5 5 6 5 5 4 4 3 2 3 3 2 2 3 3 4 4 3 4 2
3 2 3 4 4 5 2 7 12 16 15 13 12 12 14 12 13 15 14 13 13 12 11 10 9 9 6 7 7 10 8 7 8 7 6 5 5 5 5 5 5 4 3 3 3 3 3 3 3 3 3 3 3 3 3 3 3 3 3 4 4 4 5 5 4 5 5 4 4 5 5 5 6 4 4 3 4 3 2 3 4 3 3 3 5
4 4 5 5 1 2 5 6 6 10 14 17 18 16 13 13 15 16 15 14 14 13 12 10 9 9 7 7 6 8 8 8 8 6 5 6 5 5 6 6 5 4 3 3 3 3 2 3 3 3 3 3 4 4 4 4 4 4 4 4 4 4 4 4 4 4 4 3 2 3 5 5 4 2 3 2 1 0 2 2 3 4 3 4 3
5 6 6 4 3 3 3 6 7 8 10 11 11 10 5 11 10 14 15 14 13 13 12 11 9 9 7 8 6 8 7 7 7 6 5 6 5 6 6 6 6 5 5 4 3 3 2 2 3 3 3 3 2 2 1 3 4 4 3 4 3 3 4 4 4 4 3 3 2 3 3 4 3 2 2 2 3 3 3 2 3 3 3 5 4
5 6 6 6 4 3 2 2 5 5 4 6 4 10 12 10 12 7 11 13 13 13 12 11 9 9 7 8 6 7 6 6 7 6 6 5 5 5 4 7 6 6 6 6 4 4 4 4 3 3 3 3 3 2 2 2 4 4 3 4 3 3 4 3 3 3 3 3 2 0 1 3 2 3 3 5 4 4 4 4 3 4 3 3 4
5 6 7 7 4 4 3 4 9 9 5 6 8 10 9 8 11 12 8 11 12 12 12 11 9 7 8 9 7 8 6 6 5 7 6 4 6 6 3 5 6 6 6 6 4 4 5 4 3 3 3 3 2 3 2 2 2 4 3 3 3 2 3 4 3 3 2 3 1 0 2 2 2 1 1 3 2 2 3 4 4 3 4 5 4
5 6 6 7 6 3 3 5 6 6 5 3 7 9 10 9 6 13 9 8 8 8 10 10 8 8 7 8 8 8 8 7 5 7 8 5 5 7 3 3 5 6 6 6 4 4 4 4 3 4 3 3 3 2 3 2 2 3 3 3 3 2 2 3 3 3 1 2 1 0 0 3 3 0 2 3 2 2 2 2 2 3 3 3 3
8 7 6 7 7 6 5 6 6 3 4 4 5 5 7 7 6 5 9 9 4 7 6 8 7 7 7 7 8 7 8 7 6 6 7 5 5 6 4 4 4 6 7 6 4 5 4 4 3 4 3 3 3 2 2 3 2 4 3 3 3 3 3 2 1 2 2 2 1 2 3 2 2 1 2 0 1 1 2 1 2 2 2 2 2
6 6 6 6 6 7 6 3 7 6 3 3 2 3 3 4 11 11 7 3 13 3 6 4 5 4 5 6 6 5 5 5 5 5 7 6 5 6 6 6 4 5 8 7 5 5 5 4 4 4 3 3 3 3 3 3 3 3 3 2 3 3 3 2 1 2 2 2 1 0 1 0 2 0 0 0 2 1 1 3 2 2 2 2 2
7 7 7 7 7 8 9 7 7 6 5 5 3 2 7 2 2 6 10 10 11 4 1 5 4 3 4 4 4 5 4 4 4 4 4 8 6 5 5 7 6 6 7 8 6 6 6 5 5 5 5 4 3 3 3 3 3 4 3 4 3 3 3 3 3 1 2 1 1 0 0 2 3 2 2 3 2 2 1 2 3 3 2 1 2
7 7 7 8 7 6 7 7 9 8 9 7 3 4 5 4 2 8 5 6 5 6 4 2 2 4 5 4 4 3 4 3 3 4 4 3 3 5 4 5 6 6 7 8 7 6 7 7 6 6 6 5 5 4 4 3 3 3 3 3 4 3 3 4 3 3 1 1 2 2 3 1 1 1 3 4 3 2 3 4 4 2 2 2 2
8 8 8 8 8 9 8 8 7 7 8 8 9 4 5 5 7 7 6 4 6 4 2 1 3 2 3 4 2 4 5 3 3 4 5 3 2 3 2 2 3 7 6 9 8 6 6 7 6 7 7 7 7 6 5 4 4 4 4 3 5 4 3 4 4 3 2 2 0 2 1 3 1 1 2 3 3 3 2 2 2 3 1 0 0
8 8 8 8 7 8 9 10 9 9 8 8 8 8 9 7 6 9 11 6 4 5 3 1 2 0 2 4 5 3 4 3 3 3 4 5 4 3 2 3 2 2 2 6 8 7 7 7 7 6 7 7 7 6 5 4 4 5 5 3 4 4 4 3 4 3 3 3 2 2 1 2 2 1 1 2 3 3 3 4 4 4 3 3 3
8 7 6 7 9 9 9 9 9 8 8 9 8 9 8 6 7 9 9 7 7 6 5 5 2 1 2 4 3 2 2 2 2 1 3 3 2 0 1 2 2 2 1 0 4 8 7 7 7 7 7 6 7 6 6 6 6 6 5 5 4 4 4 3 4 3 4 5 4 3 3 2 3 2 2 2 2 2 2 1 3 4 4 4 3
8 7 7 7 8 9 10 10 10 9 9 7 7 7 7 6 7 8 8 8 8 6 2 8 8 7 5 3 4 5 1 1 1 2 5 7 9 9 9 9 7 3 1 1 1 1 3 7 7 7 7 7 7 7 7 7 6 5 5 5 5 4 4 3 4 4 4 3 4 3 2 3 3 2 1 2 2 3 4 3 3 4 3 4 5
6 6 5 5 6 8 9 8 9 10 10 10 8 8 8 8 7 6 8 8 8 7 8 7 6 8 7 6 3 3 2 3 4 5 5 4 4 4 4 8 6 6 9 9 3 3 3 3 5 6 6 7 8 7 7 7 7 5 5 5 5 4 4 3 3 3 3 1 0 1 2 1 1 2 2 0 2 2 3 3 3 4 4 5 4
7 5 4 5 5 6 8 7 8 8 9 9 9 10 9 7 7 8 8 7 6 6 6 6 6 7 7 7 6 3 2 1 2 3 5 6 5 6 5 2 6 6 5 7 8 6 4 4 1 3 7 7 5 6 7 6 7 6 6 6 5 4 4 3 3 3 2 3 2 2 1 1 1 0 0 1 0 1 1 2 3 3 4 4 5
7 6 7 7 7 6 5 6 7 9 9 9 9 9 10 8 8 8 7 6 6 6 6 5 6 5 5 4 4 3 1 2 2 3 4 5 6 6 6 6 6 6 5 6 6 6 5 5 5 5 4 3 3 3 3 4 7 7 6 5 5 4 4 4 3 3 3 3 3 2 1 1 2 1 2 5 4 3 3 3 3 3 3 4 4
10 8 7 7 6 5 5 6 7 9 9 9 8 8 7 8 8 7 6 5 5 6 7 7 6 5 5 5 4 3 1 1 1 2 2 5 5 5 7 7 6 6 5 7 5 7 9 7 6 6 7 6 4 3 5 6 7 8 6 6 6 6 5 5 4 3 3 3 3 3 2 1 5 7 7 6 5 3 1 1 2 3 3 3 3
8 9 7 6 6 5 5 5 6 9 9 9 8 8 9 8 7 7 6 5 3 3 5 6 6 5 4 4 5 5 5 5 5 3 2 1 2 3 3 3 7 9 9 11 14 14 12 9 6 4 5 3 5 5 7 10 12 7 6 5 4 4 4 3 5 4 3 3 3 3 3 10 9 8 7 6 5 5 3 2 2 1 1 1 1
9 7 9 7 5 4 4 5 4 6 6 7 6 7 8 8 6 6 5 4 4 2 4 3 3 2 2 2 2 3 1 1 2 1 3 4 5 5 7 7 8 9 9 9 7 6 6 6 7 7 8 7 6 5 9 13 14 12 7 6 5 3 3 2 3 2 3 2 2 3 3 6 7 5 3 6 5 6 6 7 7 7 5 2 1
9 6 8 6 5 5 5 4 4 5 6 6 6 7 6 6 5 5 4 2 1 0 1 2 2 1 0 1 2 1 2 2 1 0 1 2 1 1 1 2 3 3 3 1 2 4 4 4 6 7 7 6 6 8 13 13 12 13 10 7 5 4 4 3 4 3 3 3 4 3 3 4 3 4 3 3 6 9 10 10 10 9 9 9 7
9 9 8 9 8 7 6 3 4 5 6 6 5 6 5 6 5 6 7 6 7 6 6 4 3 3 2 1 1 2 2 2 1 1 2 2 1 2 2 2 3 2 2 1 1 1 1 2 4 4 1 3 2 6 10 11 11 12 13 10 5 5 4 2 3 1 2 2 3 4 3 4 4 10 6 3 5 7 11 13 11 9 8 9 10
7 4 8 8 6 9 5 2 5 3 7 4 3 5 4 1 3 5 4 5 7 6 6 6 5 4 3 2 1 1 1 0 1 1 1 0 2 3 2 1 1 2 1 2 1 1 1 3 2 3 4 2 3 5 13 14 14 14 13 9 6 5 4 3 2 3 3 4 2 0 0 1 2 4 5 4 4 5 6 7 6 5 6 9 12
9 5 6 6 11 10 7 2 2 4 2 2 3 4 4 6 4 4 3 1 2 4 4 3 2 3 4 4 4 3 1 1 1 1 1 2 2 3 3 2 1 2 3 3 3 3 3 3 3 5 5 3 3 4 9 12 13 13 13 8 5 2 5 3 3 2 1 0 1 1 2 3 2 1 1 1 1 1 1 0 1 2 3 3 3
10 11 8 8 6 6 5 3 5 3 5 5 3 3 3 2 3 2 2 2 3 2 3 2 2 1 2 3 2 2 1 1 1 0 1 2 2 3 3 2 3 2 3 2 2 5 4 4 2 7 5 5 4 4 7 11 12 13 11 4 3 2 4 3 2 2 2 1 2 3 5 4 3 4 4 5 4 0 1 1 3 4 4 4 4
8 9 7 5 3 2 4 5 2 5 5 4 3 2 1 2 2 4 5 4 2 2 3 2 2 3 2 2 2 1 1 1 1 1 2 2 1 2 3 2 2 2 3 3 3 2 3 3 7 5 6 5 5 3 6 10 10 11 7 3 3 4 3 3 1 2 5 7 7 4 3 4 4 3 8 9 7 4 2 3 4 5 5 5 5
8 7 3 2 6 4 4 2 3 2 3 5 5 4 4 4 4 4 4 4 5 6 5 3 2 1 1 2 2 2 2 1 1 2 1 1 1 2 3 2 3 2 3 3 3 2 1 5 8 6 6 7 5 4 7 9 8 7 5 3 2 1 2 2 4 4 3 3 4 8 6 5 4 2 6 8 6 3 2 3 4 5 6 6 6
9 2 4 6 1 3 4 5 6 6 6 5 5 5 5 5 4 5 5 5 4 3 2 2 2 1 1 2 1 2 1 1 2 2 1 1 1 2 3 3 3 2 3 3 2 2 5 6 6 6 9 9 7 4 7 9 7 6 4 3 4 3 3 3 3 5 6 6 6 8 5 9 9 9 12 10 10 6 3 4 5 5 6 7 6
9 5 1 5 9 5 1 2 6 9 8 6 5 6 5 5 5 4 4 4 4 4 5 2 2 2 3 3 2 1 3 3 3 2 1 2 1 2 3 4 3 2 3 4 5 2 8 7 7 7 5 6 7 4 4 7 7 5 6 4 4 4 4 5 6 4 2 1 1 7 9 10 13 12 9 8 6 6 2 3 3 4 6 9 5
11 9 11 10 6 5 8 8 7 7 5 5 6 6 6 6 5 5 6 5 4 3 4 4 3 3 4 5 5 3 3 3 3 2 2 2 2 3 3 3 4 3 3 2 5 8 8 7 6 6 6 5 7 8 5 7 7 5 5 5 3 3 4 4 5 6 5 4 3 6 5 6 9 8 6 5 4 4 2 2 3 5 6 7 8
11 10 10 9 10 8 8 9 9 9 8 6 7 8 8 7 7 7 6 6 6 5 3 4 5 6 5 5 4 4 3 2 2 2 2 2 3 3 4 4 4 4 1 6 3 7 6 6 6 6 6 6 6 10 7 6 6 6 6 4 1 3 4 4 5 4 5 4 4 6 5 7 7 4 3 3 4 5 7 3 5 9 11 12 9
9 10 12 10 11 10 10 10 8 9 7 8 8 10 9 8 8 7 6 7 8 7 7 7 7 7 6 5 4 4 3 2 3 3 4 3 3 4 4 5 3 3 5 6 4 6 6 6 7 5 4 6 6 7 9 6 6 6 6 6 3 0 6 4 3 4 4 4 5 4 7 5 3 4 5 5 7 9 7 6 10 10 9 11 9
12 13 13 12 12 11 10 11 11 9 9 9 10 10 10 9 9 7 7 6 6 7 7 6 6 6 6 6 7 6 5 4 4 4 5 4 4 4 4 1 4 3 5 6 4 5 6 7 6 5 5 5 5 5 6 8 6 6 6 4 2 3 2 1 2 2 3 5 4 3 3 4 4 8 9 10 9 9 7 10 12 13 13 11 6
14 14 12 12 14 15 14 14 11 10 9 9 9 9 9 10 9 8 9 8 7 7 7 7 7 7 6 6 6 6 6 5 4 5 6 5 4 1 0 3 3 3 2 5 6 5 5 6 6 6 5 5 5 6 5 7 10 9 8 8 7 5 4 2 1 3 3 4 6 9 10 9 8 10 10 10 9 10 14 13 12 12 10 5 6
15 15 15 15 16 15 15 14 14 15 13 9 9 10 13 11 10 8 7 7 8 9 10 10 10 8 8 9 7 7 6 5 6 6 4 2 1 4 3 4 3 3 3 4 6 6 6 6 6 6 6 5 5 5 4 3 3 5 5 7 6 6 5 7 5 4 8 12 12 11 10 11 12 11 8 6 7 5 6 9 11 12 7 6 6
18 16 14 14 15 14 14 14 14 12 9 8 10 9 9 9 9 9 11 12 13 13 11 10 11 10 10 10 9 6 5 5 5 3 3 1 2 4 5 5 4 4 4 6 6 7 7 7 7 8 7 7 6 5 5 4 3 2 2 1 2 3 5 3 3 2 5 5 5 5 6 10 10 12 12 11 11 10 8 6 4 3 4 5 5
17 16 15 16 17 16 15 15 12 9 10 10 10 12 12 11 10 10 10 12 11 9 7 6 8 8 7 6 7 4 5 5 4 3 2 4 2 4 4 5 5 5 5 6 7 7 8 8 8 9 9 8 6 5 5 5 3 3 2 2 3 3 3 2 3 3 3 4 5 6 8 7 7 4 2 1 2 2 4 4 4 4 5 6 7
17 16 14 11 11 14 15 15 14 12 11 12 12 12 13 14 12 13 12 12 10 8 7 8 7 7 7 5 5 4 5 4 2 7 8 6 4 2 1 1 4 1 6 8 7 7 8 7 7 9 8 7 7 6 4 3 6 6 5 4 3 4 4 3 3 4 5 5 5 5 5 3 4 4 4 4 4 3 3 4 5 5 5 6 6
17 14 16 16 15 15 15 16 14 13 13 13 13 13 12 13 13 13 13 13 11 9 8 8 8 6 6 7 7 7 6 4 3 8 7 7 11 14 9 4 1 5 10 8 6 6 6 7 8 5 3 8 8 6 8 9 12 11 10 8 5 2 1 2 4 7 4 3 5 6 2 4 4 4 4 4 4 3 4 4 4 5 5 5 6
15 15 15 16 15 13 14 15 13 12 13 12 12 13 13 14 14 13 11 10 9 8 9 9 7 7 7 7 6 5 5 2 6 8 7 7 7 10 16 14 7 9 14 14 14 15 15 13 12 8 10 15 14 12 11 12 10 9 7 5 2 2 5 5 5 3 2 3 4 2 3 3 3 3 3 4 4 4 4 5 5 5 5 7 6
Wind_Direction
175 164 172 173 176 180 158 171 155 146 133 137 149 142 147 145 142 135 132 133 147 156 172 159 149 120 89 100 116 142 86 89 75 57 74 49 33 45 47 57 78 28 27 106 138 143 119 128 122 122 135 135 131 164 191 145 156 168 125 112 111 119 90 97 99 360 13 29 30 298 309 330 174 192 306 341 355 33 355 343 344 353 338 332 325
169 156 167 172 178 172 161 170 143 152 145 153 167 148 163 146 146 137 138 157 162 170 142 87 107 128 170 136 141 66 103 116 87 94 79 75 79 58 61 107 88 72 39 23 355 126 146 131 123 75 77 67 113 157 194 131 144 124 106 108 63 96 116 137 164 164 147 214 186 237 295 270 284 206 187 220 305 21 2 330 327 325 332 319 317
163 162 171 176 176 164 168 158 152 152 149 168 180 156 165 152 143 142 153 163 160 113 103 81 57 41 43 46 81 97 61 67 93 92 101 104 83 70 34 16 49 126 116 332 136 75 88 111 117 133 107 96 58 23 160 153 152 154 158 137 118 95 110 152 188 206 144 137 46 53 299 319 328 339 329 250 190 106 22 310 302 296 302 292 18
160 176 171 166 179 160 153 141 139 123 147 178 206 172 169 158 151 146 158 157 132 123 119 90 81 76 62 69 58 74 88 72 89 82 78 74 67 78 80 62 41 15 23 91 75 14 51 114 131 123 149 139 150 170 157 149 155 170 178 137 108 115 146 205 185 253 92 139 168 177 288 19 311 285 340 354 340 195 161 251 297 319 320 340 354
164 178 175 177 156 168 167 152 148 133 159 210 198 185 176 165 154 151 157 150 137 135 114 109 104 87 87 78 79 87 96 112 91 85 94 106 107 80 54 65 60 59 74 59 49 52 34 41 64 108 116 146 163 171 170 158 167 169 170 162 166 154 155 104 175 278 313 300 25 116 88 230 241 21 348 301 304 313 274 255 316 327 355 340 303
177 172 161 152 160 170 167 153 156 159 178 207 203 208 177 166 158 152 156 145 146 134 123 124 126 124 123 108 109 122 129 134 125 139 140 102 95 73 83 64 50 55 46 43 57 69 70 38 22 68 61 45 27 47 96 145 167 155 145 98 75 60 82 149 110 300 294 290 315 353 317 295 63 130 313 282 320 261 281 338 310 358 334 288 292
149 159 143 159 188 171 157 170 154 166 180 216 205 217 193 168 162 157 155 150 148 136 137 141 133 135 136 139 144 150 147 106 97 89 98 99 84 100 90 77 99 74 62 78 63 54 37 34 25 66 79 58 51 47 44 39 50 79 116 149 142 168 146 127 105 47 264 89 337 303 321 302 313 12 233 48 307 209 221 244 240 255 295 305 313
154 171 169 182 195 200 176 169 173 174 146 248 264 223 194 173 163 158 156 151 151 143 148 148 143 145 156 152 156 145 105 111 113 112 101 98 116 117 117 106 93 70 64 64 73 58 48 35 23 18 75 102 73 47 56 36 48 50 37 43 58 47 90 125 170 176 160 149 204 163 250 267 271 24 39 16 328 322 303 220 246 242 229 243 265
184 174 181 189 191 188 186 168 165 170 171 180 233 238 200 171 163 159 155 151 152 148 150 152 143 155 159 151 151 112 116 117 110 114 122 133 138 122 90 83 61 69 77 73 69 74 60 50 37 35 29 52 81 82 64 61 56 49 45 41 62 64 48 50 85 123 136 146 175 195 199 196 199 192 160 158 239 287 286 280 259 216 227 240 222
248 169 186 167 179 183 192 189 178 176 179 160 206 251 213 171 168 159 157 154 153 151 154 154 148 157 159 155 138 125 133 135 131 127 123 146 107 89 94 87 94 101 91 82 82 80 89 72 55 51 65 75 88 86 83 84 70 54 47 48 50 68 53 54 53 44 58 32 23 45 127 136 138 146 215 197 221 208 244 302 267 264 285 226 205
303 2 10 59 146 174 176 181 183 175 174 182 183 244 248 179 169 163 159 154 156 154 159 159 151 164 161 162 141 138 147 143 132 131 137 121 125 136 128 126 113 93 99 87 87 75 70 68 78 71 43 45 60 73 100 109 108 116 94 72 60 60 57 57 47 34 42 37 21 21 44 49 48 36 45 4 4 3 3 343 345 324 306 305 253
16 6 44 59 20 329 266 187 176 180 174 180 189 175 235 209 176 164 158 155 157 157 158 163 153 164 165 159 145 145 149 140 140 147 152 145 149 147 126 120 114 125 98 100 101 108 88 99 98 75 71 72 77 103 113 90 87 86 81 78 68 55 70 69 59 52 40 43 22 12 11 42 46 37 4 1 30 16 1 316 287 317 333 341 341
32 51 41 47 36 265 283 280 211 180 175 182 174 188 209 213 183 165 161 156 157 159 161 164 157 165 165 156 145 142 143 139 149 145 160 149 156 144 142 135 135 135 140 117 118 115 128 107 93 93 74 57 69 65 50 71 85 90 86 79 83 94 86 87 79 69 73 64 31 29 18 42 57 40 13 342 317 205 260 298 333 354 327 312 301
62 52 43 29 13 308 246 255 252 199 179 184 176 138 167 277 207 169 161 156 157 159 159 163 161 163 157 151 144 137 145 142 147 152 159 150 168 149 155 146 149 150 142 135 149 137 140 115 87 98 103 95 94 69 109 133 132 110 106 104 99 91 92 90 96 102 94 79 54 51 25 57 11 28 5 326 352 4 7 11 354 329 322 302 297
66 64 57 36 16 341 309 249 255 175 147 162 91 56 28 341 291 198 159 158 159 158 157 161 161 162 151 151 146 139 145 147 149 152 161 160 161 150 164 148 152 151 151 139 161 158 122 108 110 105 113 108 99 103 64 39 64 81 74 78 75 74 81 79 81 90 90 93 74 69 134 84 30 35 339 35 14 25 4 359 348 335 327 316 329
68 62 48 36 44 356 10 351 50 64 83 60 74 101 141 223 290 282 181 161 160 157 156 159 162 161 152 150 157 146 150 151 155 151 163 169 151 150 170 149 148 147 143 143 168 144 133 128 134 132 121 124 127 142 158 93 98 99 109 115 108 123 137 137 126 103 99 90 85 277 98 129 108 51 336 64 54 28 3 357 342 340 343 335 339
73 73 55 35 36 27 43 69 65 83 101 90 93 119 153 186 211 286 267 164 140 165 156 157 160 159 158 151 161 154 163 158 172 156 162 168 142 147 156 145 138 144 137 142 164 136 139 146 155 140 153 158 163 174 115 120 142 139 126 135 138 143 93 72 90 103 86 86 87 343 304 123 78 342 38 37 33 19 13 326 317 324 351 328 326
90 80 79 57 38 44 64 72 83 86 88 108 117 124 153 182 162 256 312 341 128 181 151 154 160 160 159 159 162 163 161 159 169 154 150 152 136 148 141 156 146 141 136 142 161 143 147 162 151 149 159 161 173 168 144 157 168 121 156 155 136 122 112 149 135 109 95 102 51 41 351 61 90 13 76 22 343 22 294 267 273 305 344 356 338
95 92 90 76 59 56 36 51 107 93 74 80 88 152 156 185 153 176 186 140 310 281 149 148 153 156 159 162 163 160 156 152 157 147 139 143 151 152 153 164 146 137 138 144 160 156 158 171 158 162 166 175 175 179 165 170 184 131 170 138 121 152 159 157 129 118 150 127 130 172 318 25 99 112 180 195 189 207 288 326 347 348 327 343 335
101 104 99 91 76 55 41 35 68 82 117 117 120 211 128 186 147 154 163 174 194 276 342 140 151 150 156 152 157 155 154 144 124 88 127 150 158 158 165 160 158 148 146 151 167 165 168 177 171 164 172 173 185 177 183 185 194 146 179 148 170 199 160 157 134 160 176 150 102 276 21 16 35 347 268 198 171 184 164 280 312 305 296 285 315
105 105 105 107 98 84 73 57 61 54 51 42 45 79 79 129 123 111 104 105 88 44 355 54 158 165 149 153 146 149 129 119 115 122 113 98 142 164 184 163 149 163 151 156 174 174 179 179 179 179 175 183 184 178 191 185 201 161 198 172 165 207 187 163 163 182 154 185 196 203 161 152 58 315 314 328 280 221 187 195 216 249 271 252 230
113 113 114 111 111 114 112 100 88 72 61 48 29 57 155 141 123 100 85 112 97 109 174 288 21 9 137 130 111 90 72 90 134 150 126 131 163 84 47 62 171 165 156 162 177 179 175 181 191 188 187 183 190 183 187 181 197 173 204 190 158 203 208 172 161 176 156 181 67 334 227 150 153 339 352 314 326 345 320 265 176 188 232 293 341
118 114 110 112 115 114 106 102 105 104 101 78 60 47 39 51 75 124 143 142 140 152 168 116 136 224 69 124 126 124 111 130 123 136 147 155 167 144 185 137 105 89 188 174 177 177 182 182 193 197 192 190 192 187 185 183 200 180 198 182 174 199 202 178 152 185 189 160 170 213 268 126 119 224 279 295 294 298 333 335 352 359 332 312 286
117 111 113 119 121 118 117 117 113 110 108 107 94 67 51 52 62 64 66 106 122 141 151 158 129 62 41 45 66 111 141 130 154 125 168 163 138 22 292 146 146 151 122 269 188 183 181 190 193 198 198 194 193 190 186 190 201 192 194 183 190 206 201 185 162 192 207 157 175 192 214 156 152 195 252 280 302 272 256 315 350 335 335 311 298
134 139 141 140 134 129 124 122 118 116 113 109 106 104 99 87 71 59 57 53 43 24 134 135 104 86 70 47 48 351 357 69 44 70 45 36 20 13 353 349 342 339 288 199 269 213 205 194 198 199 202 199 198 196 193 191 202 197 193 188 190 204 203 192 179 194 208 168 167 176 199 183 163 204 213 247 264 14 0 5 333 334 315 338 354
126 123 128 127 119 113 121 127 125 123 123 120 119 120 107 96 95 99 91 72 50 43 39 60 97 106 99 86 80 92 52 52 42 61 71 81 106 104 342 316 346 349 357 322 299 241 236 232 200 198 209 211 201 199 201 195 202 202 193 194 189 195 191 194 191 203 179 108 67 170 205 189 142 177 220 335 26 351 9 346 345 345 330 317 314
138 122 109 91 89 94 99 98 109 120 123 119 122 118 113 112 110 104 98 97 106 91 70 62 63 71 81 92 93 77 73 92 114 123 123 130 146 145 162 232 302 291 251 268 290 293 262 223 221 238 216 208 208 205 205 194 201 208 199 198 186 187 178 181 190 182 163 151 182 235 236 164 172 130 175 208 320 33 29 356 353 347 337 350 340
144 161 156 138 123 119 118 121 127 119 110 113 115 114 114 111 108 109 113 119 129 133 125 101 90 89 82 82 86 93 107 141 172 168 155 164 171 170 173 179 211 242 269 270 287 307 320 302 255 241 241 200 195 189 221 211 201 209 195 197 182 183 176 170 179 173 185 169 170 188 199 178 193 65 59 59 57 52 24 1 352 350 345 344 339
179 166 143 129 138 127 122 107 98 103 106 107 107 104 103 103 106 107 110 110 113 125 131 127 123 125 133 142 143 136 130 98 63 134 167 170 183 179 171 175 188 199 210 242 259 269 273 262 242 232 226 214 201 191 201 223 216 210 187 192 184 182 175 170 174 182 182 173 162 177 189 173 99 111 103 104 112 118 66 316 321 3 357 359 346
203 161 161 147 130 141 137 139 139 131 128 127 129 133 129 126 120 116 113 117 116 103 116 125 122 130 143 135 142 153 158 159 187 182 190 217 171 158 142 187 201 203 200 196 191 192 208 222 231 230 232 202 167 201 207 222 224 205 184 173 161 168 170 176 166 179 190 175 202 176 145 121 135 130 138 122 106 125 171 186 239 271 281 313 340
221 183 149 151 154 141 134 123 102 106 115 119 113 114 117 111 114 115 105 92 93 86 76 59 79 71 87 124 122 109 116 131 72 183 188 188 186 176 184 199 195 202 204 204 193 203 196 205 215 221 222 210 199 205 205 227 221 196 156 143 164 173 164 163 129 191 176 180 224 221 152 155 141 152 143 161 175 199 210 225 231 220 214 203 246
270 243 151 171 171 173 151 133 142 152 140 148 164 155 150 146 154 163 145 154 101 228 133 96 117 176 64 96 91 79 114 106 168 11 341 17 5 345 287 216 205 212 210 189 191 199 209 209 220 229 228 193 183 190 208 213 191 164 148 153 147 135 139 177 165 188 153 190 203 214 191 159 177 166 187 183 207 214 224 228 228 233 241 242 224
248 256 163 178 194 132 86 88 205 168 152 158 167 134 123 129 144 153 159 165 174 173 161 158 169 184 171 108 125 182 140 142 101 36 25 311 280 241 229 269 264 214 191 170 298 305 357 303 261 242 57 60 107 190 173 153 139 135 134 133 137 123 129 124 118 197 161 224 226 197 201 173 197 192 200 204 187 210 230 231 231 242 252 249 249
266 222 179 208 148 112 112 76 15 22 35 28 35 81 107 147 169 155 154 182 167 167 165 165 173 166 164 149 174 112 119 101 108 183 191 280 307 295 257 227 303 322 250 179 184 247 283 287 285 101 95 95 118 164 145 137 128 123 117 110 124 138 141 140 164 204 191 222 246 175 136 200 161 159 193 208 229 227 207 217 234 242 245 249 248
337 8 28 66 71 73 88 104 242 58 27 283 197 160 179 180 184 160 158 190 237 178 149 147 173 157 172 170 175 159 141 67 27 290 261 265 252 257 281 262 220 235 250 209 185 204 220 242 258 96 111 106 84 118 120 116 112 107 101 101 87 104 129 167 211 180 187 195 31 15 320 303 303 283 200 84 247 288 341 314 215 227 240 265 282
80 71 68 72 82 90 85 67 29 314 256 239 159 133 213 223 154 163 160 208 224 176 213 174 169 156 234 150 147 137 150 179 204 182 309 295 293 306 284 239 225 250 278 281 218 193 191 205 120 115 120 120 103 101 110 106 100 94 88 78 65 102 103 85 60 26 355 7 319 251 230 240 252 253 144 141 128 116 326 299 277 267 273 268 263
59 91 110 108 105 174 197 141 87 304 316 330 346 352 349 285 242 221 209 206 190 247 256 143 182 218 205 145 138 164 154 188 214 237 241 245 267 286 294 273 252 229 237 245 279 266 202 172 119 127 122 114 129 100 89 96 96 102 105 92 88 101 110 127 185 216 222 215 216 215 211 232 237 241 151 149 157 158 201 239 257 273 272 271 266
29 67 37 339 268 274 301 313 209 195 295 306 281 234 232 254 262 272 247 227 221 214 212 204 220 248 204 158 187 197 204 191 236 254 258 283 302 276 277 273 258 253 251 244 228 268 349 93 121 127 127 120 115 92 96 92 99 88 57 68 43 83 171 203 210 219 245 258 235 223 215 217 224 52 90 55 35 5 274 282 283 280 280 278 279
166 227 306 267 292 50 338 315 339 321 296 287 299 315 305 280 264 256 260 264 275 299 315 287 274 293 306 280 251 234 216 226 250 248 240 288 278 270 261 261 256 246 252 275 263 212 96 92 95 99 116 125 124 122 118 115 116 92 52 58 40 10 344 281 237 221 209 213 229 224 188 68 76 93 80 71 49 30 359 344 337 324 299 288 290
330 337 276 18 9 354 202 249 260 255 250 248 275 281 280 281 281 292 304 306 293 272 265 295 322 286 265 257 227 217 227 227 230 226 237 251 273 291 293 272 255 239 245 223 234 166 106 99 96 113 122 119 124 124 113 105 93 86 36 40 28 12 348 316 287 255 249 236 282 71 73 93 88 89 88 83 74 61 33 343 329 305 297 287 318
323 327 354 327 319 327 331 310 305 301 298 297 289 276 268 266 265 265 258 258 266 273 271 262 266 290 290 279 266 241 223 212 203 203 205 220 236 259 279 283 258 236 243 57 66 91 107 110 120 123 122 128 147 140 122 113 105 108 72 56 20 2 355 343 349 351 1 346 358 79 66 79 81 66 70 66 50 25 350 310 285 268 266 294 320
293 300 302 305 302 294 271 265 259 264 283 283 261 249 244 256 261 259 256 250 246 249 256 267 263 257 266 274 271 263 258 242 216 219 224 233 241 250 240 244 251 227 121 98 115 112 114 115 91 94 112 127 125 119 122 121 125 113 102 90 46 27 5 328 352 341 335 336 336 99 99 85 90 108 76 181 236 238 234 233 253 252 266 274 273
285 293 291 282 274 280 289 291 302 298 291 282 289 290 290 282 268 264 274 275 269 261 259 259 257 259 255 253 264 271 253 229 229 222 222 222 222 238 250 249 238 110 111 117 115 129 128 113 101 95 95 99 107 112 128 135 143 120 90 93 109 335 347 357 355 337 333 332 324 71 121 118 112 180 212 224 237 243 247 236 239 248 258 264 270
290 283 279 286 287 285 282 279 276 272 275 275 268 264 261 260 260 262 257 258 272 283 284 280 284 280 273 265 265 257 246 230 231 232 228 221 223 228 233 307 99 127 126 129 122 131 127 125 125 118 102 106 107 117 126 129 128 137 147 153 166 220 270 42 343 291 301 310 328 16 354 9 1 334 314 309 303 289 279 273 276 276 271 271 267
284 285 290 295 283 276 270 272 279 278 266 260 262 266 262 254 251 250 262 273 277 274 265 259 256 253 251 258 252 244 247 247 234 230 233 213 225 213 84 91 104 88 120 137 143 141 145 139 129 125 120 112 113 120 134 145 157 167 177 180 198 199 225 175 328 289 327 3 347 335 345 350 325 290 278 276 278 273 261 263 264 267 271 267 259
280 278 273 268 267 267 272 272 270 266 266 271 279 277 273 277 285 289 279 262 255 250 247 248 247 247 259 263 268 280 279 254 232 231 246 209 206 103 108 113 132 161 161 147 131 137 138 142 135 130 130 128 129 135 137 152 180 180 191 204 199 214 221 211 229 330 319 303 302 302 300 288 281 278 274 264 246 257 295 298 291 284 278 266 254
278 272 273 276 277 279 275 270 268 271 276 277 269 268 273 268 253 246 240 234 232 233 239 235 232 234 230 221 225 229 244 282 287 283 262 214 122 121 130 147 168 189 175 148 147 150 149 144 147 144 142 144 151 152 150 132 148 147 219 171 172 263 268 313 330 326 318 325 318 297 265 266 271 273 270 270 279 296 291 272 275 288 294 304 306
276 280 276 274 274 278 278 276 276 291 297 285 281 278 273 277 279 274 280 271 257 239 252 276 290 281 263 272 269 222 209 242 249 275 18 32 34 124 155 183 191 184 166 168 167 163 162 162 158 155 149 157 156 137 131 135 123 129 85 91 88 62 43 33 56 8 320 302 293 289 284 272 265 273 294 349 338 329 324 335 309 308 301 295 297
290 293 289 289 306 298 296 305 302 295 291 286 282 282 282 281 279 278 276 278 284 284 274 269 266 278 287 287 284 283 253 236 220 72 65 50 28 358 134 75 22 358 200 173 164 163 163 153 139 145 151 130 118 109 71 91 118 106 104 86 59 49 19 25 53 26 348 321 300 291 278 306 10 1 351 349 341 327 310 311 305 292 292 294 294
292 294 299 298 295 292 291 289 290 290 285 282 283 282 282 278 276 269 266 266 274 280 273 261 251 254 265 268 260 253 257 249 111 109 104 77 50 50 39 79 64 27 80 91 118 137 127 119 102 48 100 137 138 137 147 121 90 80 85 91 99 99 8 314 321 322 310 293 286 265 296 17 353 356 338 313 300 301 288 288 293 297 300 310 313
286 292 292 282 278 278 279 279 278 277 273 271 269 266 260 257 262 267 274 282 275 262 248 243 247 246 244 253 261 260 259 256 114 123 109 106 90 46 43 38 47 103 94 87 90 101 103 100 102 91 57 86 108 121 115 95 97 90 76 80 62 309 276 271 281 341 293 266 277 343 1 347 357 335 316 308 312 312 315 316 314 321 312 301 299